[[{"header":{"parameterUnit":"m.s-1","parameterCategory":1,"la1":30.2991,"la2":30.254,"lo1":-89.0895,"lo2":-89.0444,"dy":0.0017,"dx":0.0017,"nx":28,"ny":28,"refTime":"2026-01-11T09:00:00:Z","depth":0,"parameterNumber":2,"parameterNumberName":"U-component_of_WINDS"},"data":[0,0,0,0,0,0,0,0,0,0,0,0,0,0,0,0,0,0,0,0,0,0,0,0,0,0,0,0,0,0,0,0,0,0,0,0,0,0,0,0,0,0,0,0,0,0,0,0,0,0,0,0,0,0,0,0,0,0,-3.1783,-3.1783,0,-3.1831,-3.1832,-3.1832,-3.173,-3.1726,-3.1723,-3.172,-3.1771,-3.1775,-3.1779,0,0,0,0,0,0,0,0,0,0,0,0,0,-3.1601,-3.1605,-3.1782,-3.1783,-3.1784,-3.1831,-3.1832,-3.1832,-3.173,-3.1726,-3.1722,-3.1718,-3.1769,-3.1774,-3.178,0,0,0,0,0,0,0,0,0,0,0,0,0,-3.1668,-3.1606,-3.1782,-3.1738,-3.1735,-3.1831,-3.1832,-3.1832,-3.1731,-3.1726,-3.1721,-3.1717,-3.1767,-3.1774,-3.1781,-3.1922,0,0,-3.1801,-3.1804,0,0,0,0,0,0,0,0,-3.1664,-3.1675,-3.1744,-3.1742,-3.1738,-3.1769,-3.1786,-3.1862,-3.1732,-3.1733,-3.172,-3.1714,-3.1774,-3.178,-3.18,-3.1924,-3.1926,-3.1802,-3.1806,-3.1808,-3.181,0,0,0,0,0,0,0,-3.166,-3.1672,-3.1802,-3.1745,-3.1742,-3.1716,-3.172,-3.18,-3.1781,-3.1732,-3.1725,-3.1732,-3.1772,-3.1794,-3.1801,-3.1927,-3.1801,-3.1807,-3.1811,-3.1814,-3.2167,-3.2172,0,0,0,0,0,0,-3.1661,-3.1669,-3.18,-3.1803,-3.1688,-3.1724,-3.1728,-3.1764,-3.178,-3.1777,-3.1736,-3.1727,-3.1785,-3.1793,-3.1802,-3.1968,-3.1808,-3.1815,-3.1818,-3.2162,-3.2168,-3.2174,0,0,0,0,0,0,-3.1657,-3.1673,-3.1798,-3.1734,-3.1748,-3.1732,-3.1774,-3.1768,-3.179,-3.1783,-3.1779,-3.1763,-3.1781,-3.1793,-3.1892,-3.1968,-3.1818,-3.1824,-3.2156,-3.2164,-3.2171,-3.2301,0,0,0,0,0,0,-3.1652,-3.1673,-3.1726,-3.1736,-3.1752,-3.1888,-3.1778,-3.1772,-3.1802,-3.179,-3.1807,-3.1804,-3.1778,-3.1883,-3.1899,-3.1975,-3.1829,-3.2149,-3.2159,-3.2169,-3.229,-3.2312,-3.2332,0,0,0,0,0,-3.1646,-3.1761,-3.173,-3.1746,-3.1819,-3.1893,-3.1902,-3.1869,-3.1808,-3.1862,-3.1857,-3.1804,-3.1957,-3.1894,-3.1911,-3.199,-3.2144,-3.2156,-3.2168,-3.228,-3.2308,-3.2331,0,0,0,0,0,0,-3.1762,-3.1762,-3.1727,-3.1848,-3.1871,-3.1875,-3.1942,-3.19,-3.1941,-3.1928,-3.1886,-3.1891,-3.1998,-3.2004,-3.1934,-3.2126,-3.204,-3.2056,-3.212,-3.2146,-3.2166,-3.2163,-3.1834,0,0,0,0,0,-3.1801,-3.1862,-3.1858,-3.1966,-3.1979,-3.1959,-3.199,-3.1963,-3.1985,-3.1994,-3.1997,-3.202,-3.2073,-3.2109,-3.2158,-3.2289,-3.2291,-3.2352,-3.2373,-3.239,-3.2405,-3.2474,-3.2501,-3.2214,-3.2214,-3.2214,0,0,-3.1884,-3.1892,-3.1932,-3.1989,-3.2004,-3.2067,-3.1968,-3.2039,-3.2086,-3.2005,-3.21,-3.2102,-3.2125,-3.2241,-3.2293,-3.2249,-3.2484,-3.2405,-3.2419,-3.2425,-3.2489,-3.2517,-3.2541,-3.2222,-3.2221,-3.2219,0,0,-3.2068,-3.2079,-3.217,-3.2186,-3.2209,-3.2194,-3.2216,-3.2226,-3.2225,-3.2318,-3.2259,-3.2313,-3.2406,-3.2425,-3.2447,-3.2635,-3.2588,-3.2652,-3.2762,-3.283,-3.2853,-3.2872,-3.294,-3.2965,-3.2666,-3.2667,-3.2667,0,-3.2168,-3.2261,-3.2222,-3.2298,-3.2324,-3.2253,-3.2344,-3.2362,-3.24,-3.242,-3.237,-3.2484,-3.2495,-3.2614,-3.266,-3.268,-3.2703,-3.2651,-3.2852,-3.2872,-3.289,-3.2954,-3.2979,-3.2674,-3.2673,-3.2673,-3.2672,0,-3.2383,-3.2448,-3.2519,-3.2557,-3.2591,-3.2674,-3.2648,-3.2687,-3.2656,-3.2646,-3.2742,-3.2752,-3.2801,-3.2827,-3.2798,-3.2942,-3.2914,-3.2859,-3.2772,-3.2926,-3.2985,-3.3009,-3.2685,-3.2683,-3.268,-3.2678,0,0,-3.2643,-3.2657,-3.2683,-3.2699,-3.2718,-3.2768,-3.2847,-3.2894,-3.2929,-3.2957,-3.3022,-3.3101,-3.305,-3.3075,-3.3047,-3.3106,-3.3255,-3.3044,-3.3043,-3.3083,-3.3414,-3.3456,-3.3485,-3.3223,-3.3227,-3.3231,-3.3412,0,-3.2825,-3.2961,-3.2928,-3.3063,-3.3123,-3.3055,-3.3123,-3.3143,-3.3135,-3.3184,-3.3176,-3.3233,-3.3161,-3.3175,-3.3231,-3.3225,-3.3321,-3.3211,-3.3284,-3.3287,-3.3281,-3.3516,-3.3561,-3.3732,-3.3435,-3.3439,-3.3442,0,-3.3056,-3.3092,-3.3234,-3.3242,-3.3265,-3.3328,-3.3368,-3.3416,-3.3435,-3.3426,-3.3453,-3.3412,-3.349,-3.34,-3.3507,-3.3433,-3.346,-3.3461,-3.3467,-3.3474,-3.3375,-3.353,-3.3786,-3.3812,-3.3478,-3.3475,-3.3472,0,-3.3232,-3.3316,-3.3411,-3.3427,-3.3439,-3.3484,-3.3491,-3.3505,-3.3536,-3.357,-3.3589,-3.3633,-3.3657,-3.3691,-3.3663,-3.3601,-3.3774,-3.3683,-3.3769,-3.377,-3.381,-3.3808,-3.4075,-3.3826,-3.3826,-3.3825,-3.3824,0,-3.344,-3.3529,-3.349,-3.3549,-3.3647,-3.3607,-3.3704,-3.3703,-3.3716,-3.3773,-3.3716,-3.3771,-3.373,-3.3781,-3.376,-3.3851,-3.3862,-3.3857,-3.385,-3.3863,-3.3864,-3.3881,-3.3869,-3.3832,-3.383,-3.3829,-3.3828,0,-3.3654,-3.3632,-3.3731,-3.3733,-3.3736,-3.3808,-3.381,-3.3864,-3.3851,-3.3924,-3.3939,-3.392,-3.3976,-3.3951,-3.4011,-3.3997,-3.4114,-3.4091,-3.4108,-3.4103,-3.419,-3.4183,-3.4479,-3.4516,-3.4242,-3.4245,-3.4247,0,-3.3789,-3.3856,-3.3865,-3.3899,-3.391,-3.3965,-3.3995,-3.3958,-3.3991,-3.4017,-3.4069,-3.412,-3.416,-3.4254,-3.4245,-3.429,-3.4269,-3.4369,-3.4275,-3.4285,-3.4271,-3.4268,-3.4274,-3.4389,-3.4392,-3.4394,-3.4397,0,-3.4031,-3.4016,-3.4061,-3.4103,-3.414,-3.4171,-3.4198,-3.4228,-3.4191,-3.4232,-3.4289,-3.432,-3.438,-3.4432,-3.4472,-3.4478,-3.4432,-3.4426,-3.4448,-3.4462,-3.447,-3.4467,-3.4161,-3.442,-3.4417,-3.4416,-3.4414,-3.4414,-3.421,-3.4266,-3.4281,-3.4333,-3.4348,-3.4374,-3.4424,-3.4418,-3.4465,-3.4511,-3.4485,-3.4552,-3.4568,-3.4616,-3.4629,-3.468,-3.464,-3.4673,-3.4681,-3.469,-3.4702,-3.446,-3.4687,-3.4686,-3.4686,-3.4685,-3.4684,0,-3.4449,-3.4454,-3.4503,-3.4541,-3.4582,-3.4533,-3.4559,-3.4596,-3.4656,-3.4675,-3.4714,-3.4779,-3.4829,-3.4824,-3.4869,-3.4911,-3.4891,-3.4924,-3.4922,-3.4924,-3.4735,-3.4711,-3.494,-3.494,-3.494,-3.494,-3.494,-3.494,-3.4578,-3.467,-3.4657,-3.4756,-3.476,-3.4825,-3.4844,-3.4867,-3.4881,-3.4957,-3.4998,-3.4993,-3.5002,-3.5047,-3.509,-3.5087,-3.5107,-3.5149,-3.5138,-3.4962,-3.4937,-3.4913,-3.4891,-3.5153,-3.5154,-3.5323,-3.5324,-3.5325]},{"header":{"parameterUnit":"m.s-1","parameterCategory":1,"la1":30.2991,"la2":30.254,"lo1":-89.0895,"lo2":-89.0444,"dy":0.0017,"dx":0.0017,"nx":28,"ny":28,"refTime":"2026-01-11T09:00:00:Z","depth":0,"parameterNumber":3,"parameterNumberName":"V-component_of_WINDS"},"data":[0,0,0,0,0,0,0,0,0,0,0,0,0,0,0,0,0,0,0,0,0,0,0,0,0,0,0,0,0,0,0,0,0,0,0,0,0,0,0,0,0,0,0,0,0,0,0,0,0,0,0,0,0,0,0,0,0,0,-7.0913,-7.0915,0,-7.1055,-7.1057,-7.1058,-7.0977,-7.0973,-7.0969,-7.0965,-7.1105,-7.1112,-7.1119,0,0,0,0,0,0,0,0,0,0,0,0,0,-7.0564,-7.0571,-7.0913,-7.0915,-7.0917,-7.1055,-7.1057,-7.1059,-7.0977,-7.0972,-7.0968,-7.0963,-7.1102,-7.1111,-7.112,0,0,0,0,0,0,0,0,0,0,0,0,0,-7.0712,-7.0574,-7.0913,-7.0893,-7.0892,-7.1054,-7.1057,-7.1059,-7.0978,-7.0972,-7.0966,-7.0961,-7.1099,-7.111,-7.1121,-7.1309,0,0,-7.1155,-7.116,0,0,0,0,0,0,0,0,-7.0704,-7.0725,-7.0894,-7.0894,-7.0894,-7.0992,-7.0985,-7.1143,-7.098,-7.0946,-7.0965,-7.0958,-7.1072,-7.1085,-7.1124,-7.1316,-7.1321,-7.1156,-7.1163,-7.1168,-7.1171,0,0,0,0,0,0,0,-7.0694,-7.0718,-7.0969,-7.0896,-7.0897,-7.0874,-7.0889,-7.1014,-7.104,-7.0948,-7.0942,-7.0961,-7.107,-7.1114,-7.1127,-7.1324,-7.1156,-7.1166,-7.1172,-7.1177,-7.1674,-7.168,0,0,0,0,0,0,-7.0686,-7.071,-7.0964,-7.0973,-7.0783,-7.0886,-7.0902,-7.0967,-7.1038,-7.1044,-7.0966,-7.0956,-7.1098,-7.1114,-7.1131,-7.1355,-7.1167,-7.1178,-7.1184,-7.1667,-7.1675,-7.1682,0,0,0,0,0,0,-7.0678,-7.0709,-7.0959,-7.084,-7.087,-7.0898,-7.0972,-7.0973,-7.1016,-7.1052,-7.1055,-7.1006,-7.1093,-7.1116,-7.1265,-7.1359,-7.1183,-7.1193,-7.1659,-7.1669,-7.1678,-7.1805,0,0,0,0,0,0,-7.0669,-7.0707,-7.0781,-7.0843,-7.0877,-7.1093,-7.0977,-7.098,-7.1036,-7.1025,-7.109,-7.1095,-7.109,-7.1249,-7.1276,-7.1371,-7.1202,-7.1651,-7.1664,-7.1675,-7.1792,-7.1817,-7.1839,0,0,0,0,0,-7.0657,-7.081,-7.0785,-7.0816,-7.097,-7.1099,-7.1118,-7.1111,-7.1044,-7.1117,-7.1139,-7.1093,-7.1344,-7.1265,-7.1295,-7.1394,-7.1645,-7.166,-7.1674,-7.1782,-7.1812,-7.1838,0,0,0,0,0,0,-7.0756,-7.0817,-7.0791,-7.0969,-7.1029,-7.1085,-7.1176,-7.1144,-7.1224,-7.121,-7.1196,-7.1211,-7.1367,-7.1395,-7.1306,-7.1579,-7.1484,-7.1505,-7.1555,-7.1584,-7.1607,-7.1597,-7.1211,0,0,0,0,0,-7.0799,-7.0901,-7.0948,-7.11,-7.1132,-7.1149,-7.1205,-7.1194,-7.1256,-7.128,-7.1314,-7.1374,-7.1465,-7.1526,-7.1613,-7.1795,-7.1807,-7.1878,-7.1902,-7.1921,-7.1939,-7.2036,-7.2067,-7.173,-7.173,-7.173,0,0,-7.0888,-7.0934,-7.0999,-7.1121,-7.1167,-7.127,-7.1171,-7.1285,-7.136,-7.1297,-7.1441,-7.1467,-7.1532,-7.1699,-7.1774,-7.1727,-7.2035,-7.1939,-7.1954,-7.1963,-7.2054,-7.2086,-7.2114,-7.174,-7.1738,-7.1737,0,0,-7.1104,-7.115,-7.1281,-7.1329,-7.14,-7.141,-7.1441,-7.1502,-7.1518,-7.1662,-7.1616,-7.1704,-7.1863,-7.1911,-7.1957,-7.2188,-7.2148,-7.2217,-7.2339,-7.2433,-7.246,-7.2483,-7.2565,-7.2594,-7.2235,-7.2235,-7.2235,0,-7.1205,-7.1361,-7.1352,-7.1469,-7.1523,-7.1472,-7.1603,-7.1649,-7.1744,-7.1782,-7.1728,-7.1926,-7.1967,-7.2143,-7.2199,-7.2238,-7.2272,-7.2209,-7.2457,-7.248,-7.2502,-7.2579,-7.261,-7.2243,-7.2242,-7.2241,-7.2241,0,-7.1481,-7.159,-7.1687,-7.1782,-7.1846,-7.197,-7.1978,-7.2044,-7.2027,-7.2042,-7.2188,-7.2235,-7.2329,-7.237,-7.2354,-7.2544,-7.2512,-7.2459,-7.2363,-7.2542,-7.2615,-7.2644,-7.2254,-7.2252,-7.2249,-7.2247,0,0,-7.1765,-7.1852,-7.1888,-7.1929,-7.2003,-7.2085,-7.2205,-7.2299,-7.2356,-7.2422,-7.2521,-7.2656,-7.2606,-7.2658,-7.2647,-7.273,-7.2908,-7.2665,-7.2666,-7.2708,-7.3117,-7.3157,-7.3192,-7.2882,-7.2888,-7.2892,-7.3112,0,-7.1984,-7.2196,-7.2191,-7.2387,-7.2486,-7.2437,-7.2541,-7.2596,-7.2613,-7.2697,-7.2714,-7.2811,-7.2738,-7.2769,-7.2849,-7.287,-7.299,-7.2854,-7.2972,-7.2976,-7.2957,-7.323,-7.3273,-7.3478,-7.314,-7.3145,-7.3148,0,-7.2268,-7.2346,-7.2553,-7.261,-7.2651,-7.2746,-7.283,-7.2912,-7.2972,-7.2978,-7.3036,-7.3011,-7.313,-7.3031,-7.3193,-7.3101,-7.3148,-7.3165,-7.3173,-7.3183,-7.3073,-7.3247,-7.3543,-7.3574,-7.3193,-7.3189,-7.3186,0,-7.2453,-7.2608,-7.2752,-7.2789,-7.286,-7.2927,-7.2959,-7.3014,-7.307,-7.3143,-7.3179,-7.3265,-7.3312,-7.3377,-7.3375,-7.3304,-7.3539,-7.344,-7.3546,-7.3546,-7.3597,-7.3594,-7.3905,-7.3629,-7.3629,-7.3628,-7.3628,0,-7.2698,-7.2826,-7.2836,-7.2924,-7.3065,-7.3056,-7.3195,-7.322,-7.3269,-7.3359,-7.3322,-7.3407,-7.34,-7.3485,-7.3483,-7.3617,-7.3639,-7.3645,-7.3643,-7.3649,-7.3648,-7.3679,-7.3665,-7.3636,-7.3635,-7.3633,-7.3632,0,-7.2928,-7.294,-7.3093,-7.3148,-7.3164,-7.3266,-7.3311,-7.3394,-7.3406,-7.3521,-7.3547,-7.3567,-7.3665,-7.367,-7.3783,-7.3781,-7.3944,-7.3926,-7.3925,-7.3921,-7.4026,-7.4015,-7.4367,-7.4412,-7.4108,-7.4111,-7.4113,0,-7.3084,-7.3181,-7.3247,-7.3305,-7.3342,-7.3437,-7.3494,-7.3488,-7.3549,-7.3624,-7.3697,-7.3792,-7.3868,-7.4026,-7.4049,-7.4134,-7.4118,-7.4235,-7.4131,-7.4132,-7.4119,-7.4113,-7.4121,-7.4256,-7.4259,-7.4262,-7.4264,0,-7.3358,-7.3359,-7.3444,-7.3532,-7.3602,-7.367,-7.3733,-7.3782,-7.3783,-7.3853,-7.3954,-7.4013,-7.4128,-7.4222,-7.4305,-7.4334,-7.43,-7.4297,-7.4326,-7.4332,-7.4326,-7.433,-7.3979,-7.4289,-7.4286,-7.4285,-7.4283,-7.4282,-7.3555,-7.3639,-7.3698,-7.3794,-7.3841,-7.39,-7.398,-7.4003,-7.4088,-7.4182,-7.4173,-7.4284,-7.4339,-7.4447,-7.4484,-7.4569,-7.4529,-7.4571,-7.4581,-7.4591,-7.4602,-7.4313,-7.4584,-7.4584,-7.4583,-7.4582,-7.4582,0,-7.3827,-7.3862,-7.395,-7.404,-7.4115,-7.4077,-7.4144,-7.4209,-7.4308,-7.4363,-7.4438,-7.4553,-7.4643,-7.4673,-7.4761,-7.4823,-7.4809,-7.4846,-7.4841,-7.4848,-7.4634,-7.46,-7.4856,-7.4856,-7.4856,-7.4856,-7.4856,-7.4856,-7.3977,-7.4116,-7.4124,-7.4285,-7.4319,-7.4429,-7.4471,-7.4524,-7.4568,-7.4699,-7.4774,-7.4794,-7.4838,-7.4928,-7.5009,-7.5015,-7.5048,-7.5092,-7.5091,-7.4891,-7.4863,-7.4837,-7.4805,-7.5099,-7.51,-7.5298,-7.53,-7.5301]}]]